�������r�C�����j�^�v���󋵏��
Date,Time,5�C6���@���p�r�C��,����,����(m/s)
2021/12/13,00:00,4.1,��,9.3
2021/12/13,00:10,4.1,��,8.8
2021/12/13,00:20,4.0,��,9.4
2021/12/13,00:30,3.9,��,11.1
2021/12/13,00:40,4.2,��,9.0
2021/12/13,00:50,4.3,��,8.6
2021/12/13,01:00,3.8,��,8.6
2021/12/13,01:10,4.1,��,8.8
2021/12/13,01:20,4.0,��,7.5
2021/12/13,01:30,3.9,���k��,9.2
2021/12/13,01:40,4.0,�k��,8.4
2021/12/13,01:50,3.8,�k�k��,6.7
2021/12/13,02:00,3.8,�k��,6.9
2021/12/13,02:10,4.0,�k��,6.3
2021/12/13,02:20,4.1,�k��,8.1
2021/12/13,02:30,4.0,�k��,6.5
2021/12/13,02:40,3.9,�k��,7.3
2021/12/13,02:50,3.8,�k��,7.0
2021/12/13,03:00,4.0,�k�k��,5.3
2021/12/13,03:10,4.0,�k�k��,7.1
2021/12/13,03:20,4.1,�k�k��,8.6
2021/12/13,03:30,4.1,�k��,8.7
2021/12/13,03:40,4.0,�k�k��,7.6
2021/12/13,03:50,3.9,�k�k��,8.2
2021/12/13,04:00,4.0,�k�k��,6.3
2021/12/13,04:10,4.1,�k�k��,6.4
2021/12/13,04:20,3.9,�k�k��,7.3
2021/12/13,04:30,3.9,�k�k��,6.3
2021/12/13,04:40,4.0,�k��,5.1
2021/12/13,04:50,3.9,�k��,3.1
2021/12/13,05:00,4.0,�k,1.5
2021/12/13,05:10,4.0,�k,2.0
2021/12/13,05:20,4.1,�k,4.2
2021/12/13,05:30,4.0,�k,5.1
2021/12/13,05:40,4.0,�k,6.6
2021/12/13,05:50,3.9,�k,7.2
2021/12/13,06:00,3.9,�k,6.5
2021/12/13,06:10,3.9,�k,5.3
2021/12/13,06:20,4.1,�k�k��,5.1
2021/12/13,06:30,4.0,�k,3.3
2021/12/13,06:40,4.0,�k�k��,1.4
2021/12/13,06:50,4.0,�k�k��,2.0
2021/12/13,07:00,4.0,�k��,1.2
2021/12/13,07:10,4.1,��,1.5
2021/12/13,07:20,4.0,���k��,3.2
2021/12/13,07:30,3.8,���쐼,1.4
2021/12/13,07:40,4.0,�k��,4.8
2021/12/13,07:50,4.0,�k�k��,4.0
2021/12/13,08:00,3.9,�k,4.2
2021/12/13,08:10,3.9,�k,2.0
2021/12/13,08:20,4.0,�k��,1.1
2021/12/13,08:30,4.0,���k��,6.0
2021/12/13,08:40,4.1,���k��,8.0
2021/12/13,08:50,3.8,�k��,8.5
2021/12/13,09:00,3.8,��,4.7
2021/12/13,09:10,4.0,���k��,5.9
2021/12/13,09:20,3.9,���k��,3.2
2021/12/13,09:30,3.8,��,5.3
2021/12/13,09:40,3.8,��,7.9
2021/12/13,09:50,4.0,���k��,9.8
2021/12/13,10:00,3.9,���k��,10.5
2021/12/13,10:10,4.0,���k��,12.7
2021/12/13,10:20,4.0,���k��,11.8
2021/12/13,10:30,4.1,���k��,7.7
2021/12/13,10:40,4.1,���쐼,5.3
2021/12/13,10:50,4.0,���쐼,6.8
2021/12/13,11:00,3.9,��,8.4
2021/12/13,11:10,4.0,�k��,10.4
2021/12/13,11:20,3.9,���쐼,4.3
2021/12/13,11:30,3.9,���k��,5.8
2021/12/13,11:40,4.0,��,6.9
2021/12/13,11:50,3.8,��,8.5
2021/12/13,12:00,3.8,��,10.3
2021/12/13,12:10,3.9,��,7.2
2021/12/13,12:20,3.8,��,9.9
2021/12/13,12:30,3.9,���k��,11.6
2021/12/13,12:40,3.9,���k��,8.6
2021/12/13,12:50,4.0,��,12.1
2021/12/13,13:00,3.8,���k��,10.0
2021/12/13,13:10,3.9,��,10.7
2021/12/13,13:20,4.1,��,11.4
2021/12/13,13:30,3.8,���k��,12.7
2021/12/13,13:40,4.0,��,12.0
2021/12/13,13:50,4.1,��,10.2
2021/12/13,14:00,3.7,��,13.1
2021/12/13,14:10,3.9,��,11.8
2021/12/13,14:20,4.1,��,12.1
2021/12/13,14:30,3.8,���k��,13.3
2021/12/13,14:40,4.1,���k��,12.4
2021/12/13,14:50,4.0,���k��,14.6
2021/12/13,15:00,3.8,��,12.0
2021/12/13,15:10,3.9,���k��,8.8
2021/12/13,15:20,4.0,��,9.0
2021/12/13,15:30,4.1,���k��,8.1
2021/12/13,15:40,3.9,���k��,7.0
2021/12/13,15:50,3.9,���k��,8.0
2021/12/13,16:00,4.1,�k��,9.6
2021/12/13,16:10,4.0,���k��,8.5
2021/12/13,16:20,4.1,���k��,8.4
2021/12/13,16:30,4.0,�k��,5.6
2021/12/13,16:40,3.9,�k��,6.2
2021/12/13,16:50,4.1,���k��,8.8
2021/12/13,17:00,4.0,�k��,9.0
2021/12/13,17:10,3.9,���k��,7.4
2021/12/13,17:20,4.0,���k��,8.0
2021/12/13,17:30,4.1,���k��,11.7
2021/12/13,17:40,4.1,���k��,12.4
2021/12/13,17:50,4.0,���k��,13.9
2021/12/13,18:00,4.0,���k��,13.0
2021/12/13,18:10,4.0,���k��,12.0
2021/12/13,18:20,4.0,���k��,11.0
2021/12/13,18:30,4.2,���k��,15.0
2021/12/13,18:40,3.9,���k��,13.6
2021/12/13,18:50,4.0,���k��,9.4
2021/12/13,19:00,4.1,���k��,10.0
2021/12/13,19:10,4.0,���k��,9.2
2021/12/13,19:20,3.9,���k��,7.4
2021/12/13,19:30,3.9,���k��,11.1
2021/12/13,19:40,4.1,���k��,8.4
2021/12/13,19:50,4.0,���k��,7.7
2021/12/13,20:00,4.0,���k��,8.9
2021/12/13,20:10,4.0,���k��,6.5
2021/12/13,20:20,3.8,���k��,6.1
2021/12/13,20:30,3.9,���k��,3.9
2021/12/13,20:40,4.1,���k��,1.7
2021/12/13,20:50,4.1,�k��,2.2
2021/12/13,21:00,4.0,�k��,3.7
2021/12/13,21:10,3.9,�k��,3.7
2021/12/13,21:20,3.8,���k��,3.8
2021/12/13,21:30,3.9,��,1.7
2021/12/13,21:40,4.0,��,2.3
2021/12/13,21:50,3.9,���쐼,3.0
2021/12/13,22:00,4.0,���쐼,4.5
2021/12/13,22:10,3.9,��,6.4
2021/12/13,22:20,3.9,��,6.0
2021/12/13,22:30,4.1,��,5.8
2021/12/13,22:40,4.1,��,3.8
2021/12/13,22:50,4.0,��쐼,2.8
2021/12/13,23:00,4.0,��쐼,2.3
2021/12/13,23:10,4.0,�쐼,2.5
2021/12/13,23:20,4.0,���쐼,2.6
2021/12/13,23:30,3.9,��,3.0
2021/12/13,23:40,3.9,��,3.4
2021/12/13,23:50,3.9,��,3.9
